Location: Ithaca
(42.4410°N, 76.4970°W)
Time: 17:00:27
(UTC-04:00)

HST - Visible Passes

Search period start: 01 September 2014 00:00
Search period end: 11 September 2014 00:00
Orbit: 547 x 551 km, 28.5° (Epoch: 31 August)

Date Brightness Start Highest point End Pass type
(mag) Time Alt. Az. Time Alt. Az. Time Alt. Az.
08 Sep 3.1 21:08:00 10° SSW 21:08:45 11° S 21:08:45 11° S visible
09 Sep 3.1 21:00:46 10° SSW 21:02:11 12° S 21:02:11 12° S visible
10 Sep 3.1 20:53:40 10° SSW 20:55:11 12° S 20:55:34 12° S visible
